This is the latest recevied weather packets stored in our database for station/object KC1OEK-13. If no packets are shown the sender has not sent any weather packets the latest 10 day(s).
| Time | Temp. | Humidity | Pressure | Rain* | Wind** | Luminosity | Snow |
|---|---|---|---|---|---|---|---|
| 1787718529 | 15.56° C | 99% | 1019.3 hPa | 0 mm | - | 0 W/m² | - |
| 1787718224 | 16.11° C | 99% | 1019.5 hPa | 0 mm | - | 0 W/m² | - |
| 1787717920 | 15.56° C | 98% | 1019.3 hPa | 0 mm | - | 0 W/m² | - |
| 1787717617 | 15.56° C | 98% | 1019.3 hPa | 0 mm | - | 0 W/m² | - |
| 1787717312 | 16.11° C | 98% | 1019 hPa | 0 mm | - | 0 W/m² | - |
| 1787717011 | 16.11° C | 98% | 1019 hPa | 0 mm | - | 0 W/m² | - |
| 1787716705 | 16.11° C | 98% | 1019 hPa | 0 mm | - | 0 W/m² | - |
| 1787716399 | 16.11° C | 98% | 1019 hPa | 0 mm | - | 0 W/m² | - |
| 1787716094 | 16.11° C | 97% | 1019 hPa | 0 mm | - | 0 W/m² | - |
| 1787715789 | 16.67° C | 97% | 1018.9 hPa | 0 mm | - | 0 W/m² | - |
| 1787715488 | 16.67° C | 98% | 1019 hPa | 0 mm | - | 0 W/m² | - |
| 1787715184 | 16.11° C | 98% | 1018.9 hPa | 0 mm | - | 0 W/m² | - |
| 1787714881 | 16.11° C | 97% | 1018.9 hPa | 0 mm | - | 0 W/m² | - |
| 1787714576 | 16.11° C | 97% | 1019.1 hPa | 0 mm | - | 0 W/m² | - |
| 1787714273 | 16.11° C | 97% | 1019.1 hPa | 0 mm | - | 0 W/m² | - |
| 1787713969 | 16.11° C | 96% | 1019 hPa | 0 mm | - | 0 W/m² | - |
| 1787713664 | 16.67° C | 96% | 1019.1 hPa | 0 mm | - | 0 W/m² | - |
| 1787713363 | 16.11° C | 96% | 1019.3 hPa | 0 mm | - | 0 W/m² | - |
| 1787713062 | 16.67° C | 96% | 1019.2 hPa | 0 mm | - | 0 W/m² | - |
| 1787712756 | 16.67° C | 95% | 1019.1 hPa | 0 mm | - | 0 W/m² | - |
| 1787712451 | 17.22° C | 95% | 1019.1 hPa | 0 mm | - | 0 W/m² | - |
| 1787712146 | 17.22° C | 96% | 1019.3 hPa | 0 mm | - | 0 W/m² | - |
| 1787711845 | 16.67° C | 97% | 1019 hPa | 0 mm | - | 0 W/m² | - |
| 1787711541 | 16.67° C | 97% | 1019 hPa | 0 mm | - | 0 W/m² | - |
| 1787711237 | 16.67° C | 97% | 1018.9 hPa | 0 mm | - | 0 W/m² | - |
* Rain latest hour (hover to see other rain measurements)
** Current wind speed in m/s (hover to see current wind gust speed)